Date String (YYYY-MM-DD hh:mm:ss) UTC,Instrument flags,Ambient pressure (hPa),Sample flow (lpm),Bypass flow (lpm),Sample temperature (°C),Ambient temperature (°C),ASC tube jacket temperature (°C),LED temperature (°C),Box temperature (°C),Sample RH (%),Span deviation,Mass concentration (μg/m³),Mass concentration (μg/m³),Mass concentration (μg/m³)
DateTimeUTC,F1_M11,P_M11,Q1_M11,Q2_M11,T1_M11,T2_M11,T3_M11,T4_M11,T5_M11,U1_M11,ZSPAN_M11,X0_M11,X2_M11,X1_M11
2022-10-17 05:00:00,,0834.6,4.99,0.00,28.6,27.0,00.0,37.4,30.4,14.8,-000.0,0013.08,0007.85,0007.08
2022-10-17 05:01:00,,0834.6,5.00,0.00,28.6,27.0,00.0,37.4,30.4,14.7,-000.2,0012.99,0007.85,0007.10
2022-10-17 05:02:00,,0834.6,5.01,0.00,28.6,27.0,00.0,37.4,30.4,14.6,-000.3,0013.42,0007.88,0007.11
2022-10-17 05:03:00,,0834.6,4.99,0.00,28.6,27.0,00.0,37.4,30.4,14.6,-000.5,0013.44,0007.89,0007.12
2022-10-17 05:04:00,,0834.6,5.00,0.00,28.6,27.0,00.0,37.4,30.4,14.6,-000.2,0013.31,0007.90,0007.10
2022-10-17 05:05:00,,0834.6,5.01,0.00,28.6,27.0,00.0,37.4,30.4,14.5,-000.5,0013.70,0007.92,0007.09
2022-10-17 05:06:00,,0834.6,4.99,0.00,28.6,27.0,00.0,37.4,30.4,14.3,-000.1,0013.60,0007.93,0007.06
2022-10-17 05:07:00,,0834.7,5.00,0.00,28.6,26.9,00.0,37.4,30.4,14.3,0000.0,0013.87,0007.88,0007.02
2022-10-17 05:08:00,,0834.7,5.01,0.00,28.5,26.9,00.0,37.4,30.4,14.2,0000.0,0013.40,0007.89,0007.00
2022-10-17 05:09:00,,0834.6,4.99,0.00,28.5,26.9,00.0,37.4,30.4,14.1,0000.0,0014.11,0007.88,0006.96
2022-10-17 05:10:00,,0834.7,5.00,0.00,28.5,26.9,00.0,37.4,30.4,14.0,0000.0,0014.44,0007.87,0006.91
2022-10-17 05:11:00,,0834.6,5.02,0.00,28.5,26.9,00.0,37.4,30.3,13.9,0000.0,0014.37,0007.83,0006.86
2022-10-17 05:12:00,,0834.7,4.99,0.00,28.5,26.9,00.0,37.4,30.3,13.9,0000.0,0014.54,0007.86,0006.84
2022-10-17 05:13:00,,0834.7,5.00,0.00,28.5,26.8,00.0,37.3,30.3,13.8,0000.5,0014.34,0007.86,0006.81
2022-10-17 05:14:00,,0834.7,4.99,0.00,28.5,26.8,00.0,37.3,30.3,13.7,0000.0,0013.81,0007.80,0006.76
2022-10-17 05:15:00,,0834.7,5.00,0.00,28.5,26.8,00.0,37.3,30.2,13.7,0000.0,0013.70,0007.77,0006.72
2022-10-17 05:16:00,,0834.7,5.01,0.00,28.5,26.8,00.0,37.3,30.2,13.7,0000.0,0013.27,0007.69,0006.65
2022-10-17 05:17:00,,0834.7,4.99,0.00,28.4,26.8,00.0,37.3,30.2,13.6,0000.0,0012.98,0007.59,0006.58
2022-10-17 05:18:00,,0834.7,5.01,0.00,28.4,26.8,00.0,37.3,30.2,13.6,0000.0,0012.47,0007.48,0006.51
2022-10-17 05:19:00,,0834.7,5.00,0.00,28.4,26.8,00.0,37.3,30.2,13.5,0000.0,0012.25,0007.40,0006.45
2022-10-17 05:20:00,,0834.7,4.98,0.00,28.4,26.8,00.0,37.3,30.2,13.5,0000.0,0011.50,0007.32,0006.40
2022-10-17 05:21:00,,0834.7,5.01,0.00,28.4,26.7,00.0,37.3,30.2,13.3,0000.0,0011.06,0007.27,0006.34
2022-10-17 05:22:00,,0834.7,4.99,0.00,28.4,26.7,00.0,37.3,30.2,13.3,0000.0,0011.76,0007.20,0006.29
2022-10-17 05:23:00,,0834.7,5.01,0.00,28.4,26.7,00.0,37.3,30.2,13.2,0000.0,0011.80,0007.12,0006.21
2022-10-17 05:24:00,,0834.7,4.99,0.00,28.4,26.7,00.0,37.3,30.2,13.1,0000.0,0011.76,0007.03,0006.15
2022-10-17 05:25:00,,0834.7,5.01,0.00,28.4,26.7,00.0,37.3,30.2,13.0,0000.0,0011.75,0006.94,0006.07
2022-10-17 05:26:00,,0834.7,5.00,0.00,28.4,26.7,00.0,37.3,30.1,13.0,0000.0,0011.64,0006.84,0006.01
2022-10-17 05:27:00,,0834.7,5.00,0.00,28.4,26.6,00.0,37.3,30.1,12.8,0000.0,0011.55,0006.75,0005.94
2022-10-17 05:28:00,,0834.7,5.01,0.00,28.4,26.6,00.0,37.2,30.2,12.7,0000.6,0011.41,0006.66,0005.88
2022-10-17 05:29:00,,0834.7,4.99,0.00,28.4,26.6,00.0,37.2,30.2,12.7,0001.4,0011.58,0006.63,0005.82
2022-10-17 05:30:00,,0834.7,5.01,0.00,28.3,26.6,00.0,37.2,30.1,12.6,0001.3,0011.73,0006.56,0005.75
2022-10-17 05:31:00,,0834.7,4.99,0.00,28.3,26.6,00.0,37.2,30.1,12.5,0000.0,0011.72,0006.45,0005.66
2022-10-17 05:32:00,,0834.7,4.99,0.00,28.3,26.6,00.0,37.2,30.1,12.4,0000.0,0011.79,0006.31,0005.56
2022-10-17 05:33:00,,0834.7,5.02,0.00,28.3,26.6,00.0,37.2,30.1,12.3,0000.0,0011.23,0006.20,0005.48
2022-10-17 05:34:00,,0834.7,5.00,0.00,28.3,26.6,00.0,37.2,30.1,12.3,0000.4,0010.73,0006.08,0005.39
2022-10-17 05:35:00,,0834.7,5.00,0.00,28.3,26.6,00.0,37.2,30.1,12.2,0001.2,0010.58,0005.99,0005.32
2022-10-17 05:36:00,,0834.7,5.00,0.00,28.3,26.6,00.0,37.2,30.1,12.2,0000.3,0010.33,0005.89,0005.24
2022-10-17 05:37:00,,0834.7,5.01,0.00,28.3,26.6,00.0,37.2,30.1,12.2,0000.2,0010.23,0005.80,0005.17
2022-10-17 05:38:00,,0834.7,4.98,0.00,28.3,26.6,00.0,37.2,30.0,12.2,0000.0,0010.20,0005.72,0005.11
2022-10-17 05:39:00,,0834.7,5.01,0.00,28.3,26.6,00.0,37.2,30.0,12.1,0000.2,0010.70,0005.67,0005.05
2022-10-17 05:40:00,,0834.7,5.00,0.00,28.3,26.6,00.0,37.1,30.1,12.2,0000.0,0010.86,0005.62,0004.99
2022-10-17 05:41:00,,0834.7,4.99,0.00,28.3,26.6,00.0,37.1,30.1,12.1,0000.0,0010.63,0005.53,0004.92
2022-10-17 05:42:00,,0834.7,5.01,0.00,28.3,26.6,00.0,37.1,30.1,12.1,0000.0,0010.66,0005.51,0004.88
2022-10-17 05:43:00,,0834.7,4.99,0.00,28.2,26.6,00.0,37.1,30.0,12.1,0000.0,0010.37,0005.48,0004.86
2022-10-17 05:44:00,,0834.6,5.01,0.00,28.2,26.6,00.0,37.1,30.0,12.1,0000.0,0010.36,0005.45,0004.82
2022-10-17 05:45:00,,0834.7,4.99,0.00,28.2,26.6,00.0,37.1,30.0,12.1,0000.0,0010.78,0005.47,0004.81
2022-10-17 05:46:00,,0834.6,5.00,0.00,28.2,26.6,00.0,37.1,30.0,12.1,0000.0,0010.73,0005.47,0004.79
2022-10-17 05:47:00,,0834.5,5.02,0.00,28.2,26.6,00.0,37.1,30.0,12.1,0000.0,0010.67,0005.46,0004.78
2022-10-17 05:48:00,,0834.5,4.99,0.00,28.2,26.6,00.0,37.1,30.0,12.1,0000.0,0010.81,0005.45,0004.79
2022-10-17 05:49:00,,0834.4,5.00,0.00,28.2,26.5,00.0,37.1,30.0,12.2,0000.0,0011.80,0005.44,0004.77
2022-10-17 05:50:00,,0834.4,5.01,0.00,28.2,26.5,00.0,37.1,30.0,12.1,0000.0,0011.41,0005.46,0004.77
2022-10-17 05:51:00,,0834.5,4.98,0.00,28.2,26.5,00.0,37.1,30.0,12.1,0000.0,0011.26,0005.46,0004.78
2022-10-17 05:52:00,,0834.5,5.01,0.00,28.2,26.5,00.0,37.1,29.9,12.1,0000.0,0011.14,0005.45,0004.79
2022-10-17 05:53:00,,0834.5,4.99,0.00,28.2,26.5,00.0,37.0,29.9,12.1,0000.0,0010.99,0005.43,0004.78
2022-10-17 05:54:00,,0834.5,5.01,0.00,28.1,26.4,00.0,37.0,29.9,12.1,0000.0,0010.99,0005.39,0004.76
2022-10-17 05:55:00,,0834.5,4.99,0.00,28.1,26.4,00.0,37.0,29.9,12.1,0000.0,0011.29,0005.42,0004.74
2022-10-17 05:56:00,,0834.4,5.01,0.00,28.1,26.4,00.0,37.0,29.8,12.1,0000.0,0010.84,0005.41,0004.71
2022-10-17 05:57:00,,0834.4,4.99,0.00,28.1,26.4,00.0,37.0,29.9,12.1,0000.0,0011.60,0005.35,0004.69
2022-10-17 05:58:00,,0834.4,5.01,0.00,28.1,26.4,00.0,37.0,29.9,12.1,0000.0,0011.64,0005.31,0004.67
2022-10-17 05:59:00,,0834.4,4.99,0.00,28.1,26.4,00.0,37.0,29.9,12.1,0000.0,0012.06,0005.30,0004.63
